Date,TemperatureHighF,TemperatureAvgF,TemperatureLowF,DewpointHighF,DewpointAvgF,DewpointLowF,HumidityHigh,HumidityAvg,HumidityLow,PressureMaxIn,PressureMinIn,WindSpeedMaxMPH,WindSpeedAvgMPH,GustSpeedMaxMPH,PrecipitationSumIn
2013-1-1,32.5,19.4,5.8,13.6,7.9,-0.3,92,68,43,30.47,30.16,10,3,0,0.07
2013-1-2,28.8,11.3,-9.1,7.6,-2.3,-17.4,84,62,41,30.64,30.44,10,3,0,0.01
2013-1-3,28.1,8.6,-7.1,6.4,-5.5,-15.4,82,61,34,30.78,30.61,12,3,0,0.02
2013-1-4,34.1,5.9,-12.9,7.5,-7.9,-21.9,82,62,26,30.78,30.52,15,3,0,0.00
2013-1-5,34.4,19.2,-2.9,11.4,1.1,-13.0,78,50,35,30.77,30.60,14,5,0,0.01
2013-1-6,41.1,25.8,7.1,15.5,7.7,-3.3,71,50,29,30.78,30.46,7,2,0,0.00
2013-1-7,37.7,23.7,15.0,14.3,5.5,-0.6,64,50,33,30.46,30.14,14,4,0,0.00
2013-1-8,42.7,22.7,1.5,17.1,5.6,-6.4,83,53,27,30.50,30.21,14,3,0,0.00
2013-1-9,48.8,24.5,7.7,22.5,8.1,-1.4,78,54,27,30.68,30.38,9,2,0,0.00
2013-1-10,43.3,24.9,6.6,19.0,9.5,-0.9,83,57,32,30.38,29.86,9,1,0,0.00
2013-1-11,38.4,26.2,4.0,22.3,6.4,-9.7,72,45,28,30.03,29.61,21,5,0,0.00
2013-1-12,28.3,10.2,-2.4,1.4,-7.3,-15.1,71,52,25,30.32,30.03,13,2,0,0.00
2013-1-13,28.3,10.4,-2.6,4.2,-6.4,-13.4,73,53,32,30.42,30.24,10,2,0,0.00
2013-1-14,25.1,13.4,-0.6,12.8,0.7,-11.1,83,65,48,30.37,30.19,15,3,0,0.00
2013-1-15,23.8,8.3,-7.6,-0.1,-5.6,-15.9,92,61,32,30.74,30.35,12,3,0,0.00
2013-1-16,41.1,18.1,-1.8,17.0,1.6,-12.0,74,54,31,30.84,30.58,9,2,0,0.00
2013-1-17,48.7,24.4,3.9,23.4,9.2,-3.7,82,58,29,30.80,30.56,11,3,0,0.00
2013-1-18,46.0,24.6,6.3,22.9,10.8,-0.2,87,62,34,30.64,30.39,12,3,0,0.00
2013-1-19,47.4,24.7,8.5,20.7,9.5,0.3,89,58,25,30.60,30.43,14,3,0,0.00
2013-1-20,42.5,23.6,3.3,17.6,7.4,-3.9,85,55,29,30.57,30.36,15,3,0,0.00
2013-1-21,47.9,25.6,4.8,21.3,8.7,-2.7,88,53,26,30.58,30.36,12,2,0,0.00
2013-1-22,53.4,29.6,7.8,24.8,11.8,0.3,83,51,20,30.54,30.35,9,2,0,0.00
2013-1-23,60.1,30.8,11.8,30.2,12.0,1.3,76,48,17,30.57,30.37,12,3,0,0.00
2013-1-24,61.4,34.5,10.9,33.0,16.7,3.6,83,50,21,30.49,30.25,10,2,0,0.00
2013-1-25,56.0,40.6,29.8,36.3,27.9,19.8,85,65,45,30.33,30.10,7,1,0,0.00
2013-1-26,45.7,37.3,27.2,40.6,31.9,23.0,95,85,62,30.18,29.89,9,1,0,0.44
2013-1-27,52.8,44.4,34.7,37.1,33.8,29.2,87,71,51,29.91,29.79,17,4,0,0.01
2013-1-28,47.8,39.6,33.2,34.6,30.7,22.2,92,75,53,29.82,29.63,23,6,0,0.18
2013-1-29,33.0,27.8,20.4,25.1,14.8,5.0,82,64,46,30.04,29.61,17,4,0,0.01
2013-1-30,38.3,25.0,11.0,17.5,10.4,0.9,80,59,37,30.34,30.05,12,2,0,0.00
2013-1-31,49.8,32.5,22.3,25.4,19.4,15.0,83,64,32,30.40,30.25,10,2,0,0.00
2013-2-1,53.4,33.4,17.8,27.8,19.7,12.5,96,62,28,30.37,30.20,12,2,0,0.01
2013-2-2,54.3,33.0,19.1,27.8,19.4,14.1,89,62,24,30.48,30.33,12,2,0,0.00
2013-2-3,46.9,33.9,21.0,23.9,19.4,14.9,85,60,34,30.42,30.05,9,1,0,0.00
2013-2-4,55.1,38.1,21.9,29.7,22.0,16.9,88,55,26,30.14,29.94,12,2,0,0.00
2013-2-5,60.9,36.6,18.7,32.4,20.1,13.3,88,54,20,30.15,29.94,9,2,0,0.00
2013-2-6,56.0,38.2,19.8,30.1,21.7,13.6,85,54,27,30.04,29.84,11,2,0,0.00
2013-2-7,55.5,38.0,25.4,28.3,21.6,16.2,83,55,23,30.15,29.98,9,2,0,0.00
2013-2-8,49.2,34.9,23.7,25.6,20.2,15.8,81,59,33,30.16,29.80,18,2,0,0.00
2013-2-9,45.6,30.1,18.4,25.2,17.3,12.9,90,64,26,29.82,29.55,27,4,0,0.00
2013-2-10,41.2,30.4,20.7,18.0,13.6,10.6,76,53,33,30.03,29.82,15,3,0,0.00
2013-2-11,38.4,29.3,22.4,22.0,13.8,7.8,88,57,26,30.07,29.95,18,2,0,0.00
2013-2-12,41.5,26.0,10.9,20.6,10.5,3.2,88,57,21,30.27,30.05,10,2,0,0.04
2013-2-13,48.1,28.8,13.4,21.2,11.6,3.9,77,52,25,30.33,30.10,14,3,0,0.00
2013-2-14,49.4,30.4,13.2,23.8,13.6,6.7,85,53,25,30.31,30.10,12,2,0,0.00
2013-2-15,47.8,34.6,23.8,21.4,15.6,5.6,75,47,24,30.42,30.25,10,2,0,0.00
2013-2-16,54.8,33.1,13.1,25.6,12.0,2.2,73,41,18,30.53,30.22,12,2,0,0.00
2013-2-17,58.6,36.4,12.8,27.4,14.4,4.4,83,39,12,30.23,29.72,13,2,0,0.00
2013-2-18,48.5,36.1,21.7,18.4,10.9,0.1,49,30,16,30.13,29.76,13,3,0,0.00
2013-2-19,54.8,34.2,10.5,29.6,11.9,-3.5,78,38,17,30.18,29.78,25,3,0,0.01
2013-2-20,45.3,34.2,24.3,35.2,27.0,20.0,94,80,41,29.79,29.41,25,3,0,0.11
2013-2-21,38.9,28.8,18.3,27.9,20.5,13.8,91,77,52,29.94,29.56,10,2,0,0.05
2013-2-22,37.8,30.1,23.7,24.3,18.8,11.6,92,68,48,30.07,29.90,16,3,0,0.00
2013-2-23,45.8,28.6,13.4,20.2,12.9,7.4,85,56,28,30.16,29.76,11,2,0,0.00
2013-2-24,42.3,33.0,28.3,24.4,15.7,9.5,88,52,26,29.88,29.60,20,4,0,0.00
2013-2-25,46.6,33.0,17.1,18.1,11.2,3.8,69,39,19,30.12,29.88,14,3,0,0.03
2013-2-26,40.4,30.4,16.4,15.7,10.0,6.4,75,44,21,30.15,29.80,26,3,0,0.00
2013-2-27,44.0,28.1,12.7,15.2,9.6,3.3,83,49,19,30.38,30.15,14,2,0,0.00
2013-2-28,48.4,30.4,11.9,18.9,8.8,0.7,70,40,17,30.48,30.28,10,2,0,0.00
2013-3-1,55.1,33.2,17.0,27.1,13.6,4.4,66,46,22,30.49,30.29,7,2,0,0.00
2013-3-2,63.5,40.9,19.1,34.7,21.4,10.9,80,46,20,30.49,30.18,9,2,0,0.00
2013-3-3,63.8,44.8,25.3,34.6,23.4,15.2,74,41,16,30.18,29.77,20,3,0,0.00
2013-3-4,57.2,49.1,36.6,30.9,25.7,17.2,46,35,26,30.00,29.63,17,3,0,0.00
2013-3-5,59.0,39.7,18.5,29.5,18.0,9.7,77,40,11,30.27,30.00,11,2,0,0.00
2013-3-6,64.9,44.4,23.0,36.8,22.1,8.9,62,38,22,30.19,29.87,15,3,0,0.00
2013-3-7,69.0,46.0,24.1,38.0,23.8,13.5,73,38,12,30.03,29.79,18,3,0,0.00
2013-3-8,59.6,42.3,26.2,34.0,23.7,11.7,92,49,23,29.87,29.63,19,4,0,0.56
2013-3-9,36.9,33.4,28.7,31.3,22.9,18.2,93,71,53,30.00,29.68,13,3,0,0.24
2013-3-10,45.7,34.8,27.7,24.8,19.6,14.0,85,58,33,30.19,30.00,12,2,0,0.00
2013-3-11,57.3,38.3,22.6,30.9,22.8,15.9,84,57,24,30.24,29.98,13,2,0,0.00
2013-3-12,61.1,43.7,25.3,34.5,26.5,19.8,89,52,25,30.21,30.07,12,2,0,0.00
2013-3-13,67.2,46.8,27.4,39.1,28.5,21.0,85,49,21,30.30,30.10,10,2,0,0.00
2013-3-14,73.3,48.6,28.0,43.1,28.7,20.6,81,45,14,30.31,30.08,13,2,0,0.00
2013-3-15,76.2,50.6,27.9,45.6,29.0,19.1,77,40,11,30.15,29.83,17,2,0,0.00
2013-3-16,64.9,49.5,32.7,37.2,28.7,19.9,72,42,21,29.84,29.60,16,2,0,0.00
2013-3-17,63.0,48.4,30.1,34.7,29.1,22.7,90,47,13,29.74,29.51,25,4,0,0.00
2013-3-18,58.6,44.2,27.7,28.4,19.6,11.7,58,32,14,29.93,29.72,19,4,0,0.00
2013-3-19,53.8,40.6,25.6,27.3,17.0,7.3,53,34,18,30.17,29.92,12,2,0,0.00
2013-3-20,59.7,43.4,22.4,32.0,22.7,12.4,74,42,23,30.27,29.81,16,3,0,0.00
2013-3-21,64.0,51.4,35.0,34.5,27.8,16.5,69,35,15,29.81,29.44,28,4,0,0.00
2013-3-22,58.9,44.1,25.0,29.7,19.5,9.4,59,32,18,29.70,29.51,17,3,0,0.00
2013-3-23,46.8,34.9,20.0,23.2,10.7,4.5,58,33,15,30.09,29.58,23,5,0,0.00
2013-3-24,45.9,29.6,9.5,16.4,8.2,0.0,75,41,17,30.26,30.02,18,3,0,0.00
2013-3-25,50.1,31.9,12.8,19.6,9.2,-0.2,67,37,15,30.31,30.11,9,2,0,0.00
2013-3-26,60.5,44.7,22.2,31.0,18.6,3.3,49,27,18,30.26,29.91,18,4,0,0.00
2013-3-27,68.2,52.9,29.9,37.0,25.3,10.0,47,23,12,29.99,29.79,14,3,0,0.00
2013-3-28,70.5,51.5,29.9,39.4,24.4,9.7,46,25,12,30.00,29.83,13,2,0,0.00
2013-3-29,67.2,49.0,28.8,37.7,24.4,10.8,50,32,18,30.08,29.91,14,2,0,0.00
2013-3-30,71.7,51.7,28.1,41.8,28.9,16.9,76,37,16,30.12,29.83,14,2,0,0.00
2013-3-31,68.7,52.7,34.0,40.9,28.8,17.0,57,34,18,29.97,29.75,21,4,0,0.00
2013-4-1,70.1,54.2,34.8,39.5,28.6,17.0,53,29,12,29.90,29.65,20,3,0,0.00
2013-4-2,62.9,49.1,35.3,33.4,24.6,14.4,49,32,16,29.85,29.61,25,4,0,0.00
2013-4-3,58.7,46.1,30.3,34.0,27.9,20.4,74,49,31,30.06,29.85,12,2,0,0.00
2013-4-4,70.1,50.1,27.1,39.4,27.9,17.1,74,38,14,30.20,29.94,13,2,0,0.00
2013-4-5,72.6,53.5,30.1,41.6,27.5,12.6,53,28,14,29.99,29.63,17,4,0,0.00
2013-4-6,70.7,55.5,35.7,41.6,30.3,17.7,52,30,18,29.80,29.59,18,3,0,0.00
2013-4-7,70.0,56.7,39.5,39.8,30.7,20.5,50,28,15,29.70,29.50,17,4,0,0.00
2013-4-8,71.4,53.9,31.0,41.5,28.5,13.1,51,29,15,29.55,29.15,26,6,0,0.00
2013-4-9,53.1,42.5,33.9,35.0,28.7,25.6,90,62,39,29.74,29.17,33,7,0,0.10
2013-4-10,47.2,37.8,32.6,30.4,24.6,18.3,89,63,35,29.92,29.75,14,5,0,0.01
2013-4-11,60.7,42.9,23.0,35.2,25.6,16.0,83,52,28,29.98,29.75,19,2,0,0.00
2013-4-12,65.8,49.1,34.4,36.9,30.4,21.5,82,48,19,29.84,29.68,13,2,0,0.00
2013-4-13,69.5,54.3,30.8,39.3,29.3,16.2,62,31,14,29.82,29.44,22,4,0,0.00
2013-4-14,69.5,59.9,50.4,41.1,33.5,25.9,35,27,20,29.47,29.31,20,5,0,0.00
2013-4-15,73.5,60.9,47.9,42.5,33.7,25.1,37,24,13,29.48,29.28,31,7,0,0.00
2013-4-16,75.8,64.3,54.7,43.7,35.0,27.3,28,18,10,29.53,29.27,38,11,0,0.00
2013-4-17,61.4,45.5,33.3,32.5,25.3,14.8,85,44,13,29.79,29.37,19,3,0,0.01
2013-4-18,41.8,33.1,25.7,21.1,13.8,8.7,63,46,28,30.27,29.80,16,4,0,0.00
2013-4-19,58.8,40.0,17.4,28.2,14.5,0.9,56,29,14,30.40,29.99,16,3,0,0.00
2013-4-20,63.2,49.6,37.7,33.9,23.1,11.6,42,26,12,29.99,29.71,19,3,0,0.00
2013-4-21,69.3,47.8,27.9,37.6,24.2,13.7,66,35,11,30.06,29.84,17,2,0,0.00
2013-4-22,76.0,57.3,31.9,44.5,29.5,10.3,43,23,12,29.91,29.56,22,4,0,0.00
2013-4-23,66.5,51.4,39.2,36.6,26.7,11.4,55,31,10,29.97,29.55,25,8,0,0.00
2013-4-24,66.9,46.7,23.6,35.2,22.5,7.0,69,33,11,30.16,29.94,14,4,0,0.00
2013-4-25,67.7,53.5,43.7,40.8,30.0,19.6,62,35,20,30.03,29.70,22,3,0,0.00
2013-4-26,68.1,53.7,38.6,41.1,35.8,25.1,86,50,21,30.09,29.85,15,2,0,0.00
2013-4-27,74.2,53.5,30.6,43.0,30.6,19.5,71,36,12,30.17,29.89,15,2,0,0.00
2013-4-28,78.6,58.2,30.9,45.9,30.5,11.8,47,23,9,29.98,29.66,13,2,0,0.00
2013-4-29,81.2,60.5,34.2,49.4,31.9,11.4,40,20,10,29.77,29.48,15,3,0,0.00
2013-4-30,82.7,63.5,37.6,50.7,34.5,14.6,38,20,10,29.63,29.42,16,3,0,0.00
2013-5-1,77.1,64.1,43.0,46.9,34.8,18.2,31,19,11,29.97,29.49,19,4,0,0.00
2013-5-2,59.0,45.8,31.5,28.0,19.0,10.1,42,26,13,30.32,29.98,17,6,0,0.00
2013-5-3,68.0,47.9,24.6,36.7,21.5,5.5,48,27,12,30.33,29.87,14,3,0,0.00
2013-5-4,71.6,55.6,33.0,39.3,26.8,9.6,35,20,10,29.92,29.69,18,4,0,0.00
2013-5-5,67.9,54.6,36.6,39.3,28.3,13.2,40,27,19,29.97,29.81,22,5,0,0.00
2013-5-6,62.9,53.2,41.4,39.1,33.4,24.8,62,45,27,29.89,29.74,18,3,0,0.00
2013-5-7,72.2,55.8,35.6,43.7,36.2,28.4,82,45,20,29.92,29.70,23,2,0,0.00
2013-5-8,67.4,55.4,39.3,37.8,33.6,26.1,77,40,16,29.85,29.71,16,2,0,0.00
2013-5-9,64.7,50.9,36.5,38.8,29.0,17.6,60,39,24,29.99,29.84,17,2,0,0.02
2013-5-10,69.3,54.4,43.9,41.2,35.2,29.0,72,47,20,30.13,29.90,13,3,0,0.01
2013-5-11,70.6,54.3,35.2,42.4,36.0,28.9,84,49,21,30.22,30.09,15,4,0,0.00
2013-5-12,76.3,59.5,36.8,46.9,36.8,24.2,67,37,17,30.20,29.90,11,2,0,0.00
2013-5-13,80.2,56.9,39.5,50.7,33.9,22.1,57,36,18,30.09,29.90,15,2,0,0.00
2013-5-14,81.3,71.8,61.9,51.1,45.7,40.3,44,27,16,29.80,29.66,18,5,0,0.00
2013-5-15,78.3,64.5,50.6,51.3,43.2,35.8,61,41,22,29.77,29.58,15,2,0,0.00
2013-5-16,84.2,64.1,39.9,52.5,40.2,27.1,70,34,11,29.78,29.55,17,2,0,0.00
2013-5-17,82.9,66.6,40.2,50.6,37.2,16.4,38,18,9,29.78,29.54,19,4,0,0.00
2013-5-18,74.3,63.5,45.2,44.6,35.6,20.4,42,22,12,29.69,29.51,20,3,0,0.00
2013-5-19,70.7,60.5,51.4,40.1,35.2,30.6,48,30,14,29.68,29.53,21,4,0,0.00
2013-5-20,69.0,53.3,42.2,40.9,33.9,25.3,75,46,24,29.84,29.63,22,2,0,0.08
2013-5-21,76.4,57.2,33.9,45.8,36.3,26.9,84,42,14,29.96,29.69,14,3,0,0.00
2013-5-22,82.5,66.0,41.9,50.8,37.6,19.7,44,21,10,29.73,29.50,15,2,0,0.00
2013-5-23,86.7,69.9,45.1,54.1,40.7,20.8,34,19,7,29.71,29.51,23,5,0,0.00
2013-5-24,84.1,70.2,52.1,52.8,45.3,36.2,63,31,9,29.74,29.57,23,5,0,0.00
2013-5-25,85.7,69.4,48.9,53.7,43.2,28.6,59,27,9,29.78,29.55,28,4,0,0.00
2013-5-26,84.9,67.5,44.1,52.1,37.8,20.6,41,17,8,29.77,29.56,21,4,0,0.00
2013-5-27,77.9,64.0,41.3,46.2,34.0,14.7,28,17,10,29.74,29.54,12,3,0,0.00
2013-5-28,80.6,63.8,40.6,47.8,33.9,15.4,32,17,8,29.64,29.35,21,4,0,0.00
2013-5-29,76.0,65.2,50.5,44.7,37.4,26.6,39,23,12,29.47,29.31,21,4,0,0.00
2013-5-30,79.3,63.7,41.9,47.6,35.6,19.5,42,22,11,29.63,29.47,23,4,0,0.00
2013-5-31,80.4,63.5,39.4,48.7,34.9,17.0,43,20,10,29.79,29.58,18,4,0,0.00
2013-6-1,83.1,62.7,36.1,50.0,32.9,11.3,35,17,7,29.90,29.72,12,3,0,0.00
2013-6-2,85.4,66.5,45.0,55.2,40.8,23.8,45,29,16,29.91,29.58,25,5,0,0.00
2013-6-3,88.7,70.5,49.9,57.0,45.3,32.5,53,30,12,29.70,29.48,18,4,0,0.00
2013-6-4,89.5,74.6,44.4,57.6,45.9,23.9,45,20,10,29.72,29.52,23,4,0,0.00
2013-6-5,81.2,68.5,52.6,52.1,42.6,28.8,51,28,18,29.68,29.53,23,4,0,0.04
2013-6-6,83.5,65.6,44.4,55.0,43.1,30.2,63,37,17,29.80,29.58,17,4,0,0.00
2013-6-7,84.5,65.0,51.4,55.9,45.2,37.4,63,45,18,29.81,29.53,15,2,0,0.03
2013-6-8,90.0,68.1,44.1,59.8,46.6,33.8,73,40,15,29.72,29.50,21,2,0,0.00
2013-6-9,93.6,73.2,53.9,62.1,49.7,37.4,60,35,12,29.72,29.52,10,2,0,0.00
2013-6-10,96.2,79.7,55.4,64.6,53.6,38.8,58,27,11,29.69,29.47,17,3,0,0.00
2013-6-11,97.2,79.6,57.6,64.0,49.6,32.4,38,17,7,29.67,29.46,19,3,0,0.00
2013-6-12,97.8,76.3,50.9,65.0,46.1,25.0,36,16,9,29.77,29.58,22,3,0,0.00
2013-6-13,94.8,73.9,54.4,63.1,48.3,32.1,61,29,12,29.74,29.55,18,4,0,0.03
2013-6-14,84.4,72.3,59.0,58.8,49.6,42.8,58,37,23,29.72,29.54,13,3,0,0.00
2013-6-15,92.2,72.6,48.4,60.2,49.2,36.9,69,35,11,29.78,29.57,20,3,0,0.00
2013-6-16,90.5,75.2,55.4,60.3,48.9,34.6,46,27,14,29.77,29.57,21,3,0,0.00
2013-6-17,87.4,71.7,50.3,57.9,46.7,33.1,54,31,17,29.79,29.60,20,3,0,0.00
2013-6-18,86.1,73.2,59.0,57.6,50.5,41.6,59,37,15,29.79,29.53,22,5,0,0.00
2013-6-19,91.8,74.8,53.9,58.0,46.9,32.8,53,23,5,29.65,29.40,27,5,0,0.00
2013-6-20,91.1,73.7,50.4,57.6,44.0,28.5,45,18,7,29.66,29.47,26,4,0,0.00
2013-6-21,90.8,73.1,51.0,57.7,43.3,27.3,41,17,7,29.73,29.50,21,4,0,0.00
2013-6-22,89.5,72.7,49.2,56.4,42.0,23.0,37,15,7,29.70,29.48,17,4,0,0.00
2013-6-23,89.0,71.6,45.1,55.9,40.8,18.1,37,14,7,29.69,29.48,25,5,0,0.00
2013-6-24,89.2,72.3,50.1,56.1,41.6,23.5,38,15,6,29.68,29.50,22,4,0,0.00
2013-6-25,91.1,73.3,48.5,59.7,43.1,20.9,26,16,11,29.75,29.58,17,2,0,0.00
2013-6-26,99.1,77.9,50.4,66.6,49.3,27.9,44,20,9,29.79,29.57,14,2,0,0.00
2013-6-27,102.4,80.0,55.8,70.4,51.3,31.6,40,20,10,29.80,29.63,18,2,0,0.00
2013-6-28,94.6,77.9,64.8,64.7,53.9,45.7,47,33,17,29.81,29.66,18,4,0,0.00
2013-6-29,90.5,72.9,56.2,61.1,50.2,39.5,58,37,18,29.89,29.70,13,3,0,0.00
2013-6-30,88.2,71.5,53.3,60.0,50.7,39.1,68,42,20,29.87,29.62,28,3,0,0.00
2013-7-1,86.4,69.4,49.8,58.7,52.2,44.0,84,52,22,29.96,29.74,19,3,0,0.00
2013-7-2,86.3,69.5,57.8,59.3,53.1,49.9,83,54,24,29.93,29.65,15,3,0,0.14
2013-7-3,87.3,69.2,52.6,59.5,52.9,47.4,91,55,20,29.84,29.57,10,1,0,0.01
2013-7-4,94.2,74.5,52.6,63.2,52.1,42.0,72,38,14,29.71,29.50,17,2,0,0.00
2013-7-5,87.7,72.4,62.5,61.3,54.5,49.2,77,50,26,29.65,29.41,19,3,0,0.08
2013-7-6,92.0,69.4,56.7,65.0,55.5,51.8,87,61,24,29.72,29.55,15,2,0,0.01
2013-7-7,89.8,75.9,58.6,63.2,56.7,50.3,79,47,24,29.73,29.56,18,2,0,0.00
2013-7-8,90.0,74.2,65.2,63.0,56.9,51.9,80,52,25,29.77,29.64,18,3,0,0.01
2013-7-9,94.1,74.7,61.6,66.2,55.9,49.4,69,48,22,29.84,29.69,17,1,0,0.06
2013-7-10,89.8,73.2,58.6,65.0,54.3,45.2,75,48,27,29.85,29.70,16,2,0,0.11
2013-7-11,90.1,74.0,58.1,64.1,56.3,48.7,81,51,25,29.83,29.58,18,4,0,0.00
2013-7-12,87.2,75.0,59.9,62.4,55.0,47.1,66,44,28,29.69,29.58,19,3,0,0.00
2013-7-13,91.7,75.4,59.2,64.1,55.4,46.2,65,44,24,29.76,29.60,18,2,0,0.00
2013-7-14,93.0,73.4,60.4,65.3,56.7,48.9,84,54,22,29.75,29.52,19,2,0,0.12
2013-7-15,71.7,64.7,59.0,59.0,55.9,52.0,92,76,56,29.86,29.72,16,4,0,0.13
2013-7-16,79.3,65.7,53.6,55.7,51.7,48.7,92,61,30,29.97,29.81,11,2,0,0.01
2013-7-17,79.2,67.4,50.2,55.5,50.6,44.1,85,53,33,30.04,29.86,16,4,0,0.00
2013-7-18,87.1,72.2,52.0,61.2,53.7,45.0,82,49,28,29.98,29.69,18,4,0,0.00
2013-7-19,87.6,71.7,56.2,62.3,53.7,46.0,74,50,29,29.81,29.60,14,2,0,0.01
2013-7-20,91.7,73.6,60.3,65.1,55.4,50.4,76,49,22,29.77,29.52,13,2,0,0.00
2013-7-21,92.3,71.7,58.7,64.6,53.6,45.6,71,50,22,29.71,29.51,20,3,0,0.04
2013-7-22,95.5,74.7,53.7,66.3,54.5,45.6,79,44,17,29.76,29.56,18,2,0,0.00
2013-7-23,95.0,75.6,63.5,65.8,52.8,44.9,52,37,18,29.70,29.56,16,2,0,0.00
2013-7-24,93.6,73.2,58.4,63.4,52.9,43.2,67,44,16,29.82,29.60,35,5,0,0.00
2013-7-25,89.2,72.7,55.4,64.2,54.5,46.4,77,49,23,29.86,29.67,13,2,0,0.16
2013-7-26,86.1,69.8,62.2,62.0,54.1,52.0,78,56,28,29.97,29.76,14,4,0,0.02
2013-7-27,83.3,69.8,53.9,59.5,55.1,49.9,91,59,32,29.97,29.66,18,3,0,0.25
2013-7-28,76.9,67.2,59.6,60.2,57.3,52.6,93,72,46,29.76,29.61,17,2,0,0.04
2013-7-29,88.5,71.0,53.1,61.1,54.7,47.3,92,55,23,29.82,29.70,12,2,0,0.00
2013-7-30,90.8,74.4,53.4,61.8,52.8,44.0,75,40,18,29.95,29.77,13,2,0,0.00
2013-7-31,94.0,76.0,52.0,64.0,53.0,39.7,68,36,16,29.97,29.71,14,3,0,0.00
2013-8-1,84.7,72.0,62.5,60.6,55.2,48.5,87,53,30,29.80,29.66,18,4,0,0.03
2013-8-2,85.6,71.3,57.9,62.5,58.0,54.4,93,63,33,29.83,29.65,12,2,0,0.02
2013-8-3,88.2,73.4,57.0,62.5,58.2,54.1,95,58,29,29.84,29.66,17,2,0,0.03
2013-8-4,88.5,75.1,60.3,61.9,56.3,50.9,82,48,24,29.86,29.64,15,2,0,0.04
2013-8-5,89.3,71.0,58.2,63.1,57.4,51.3,93,62,27,29.85,29.62,18,2,0,0.07
2013-8-6,89.0,71.9,59.4,62.7,54.8,48.9,77,53,26,29.75,29.61,11,2,0,0.00
2013-8-7,82.4,68.6,54.6,58.8,53.5,48.8,85,58,32,29.77,29.65,13,3,0,0.00
2013-8-8,81.3,66.9,54.7,56.7,51.8,47.7,85,58,31,29.85,29.67,13,2,0,0.00
2013-8-9,80.3,66.4,48.1,54.5,48.4,41.0,82,50,24,29.93,29.81,18,2,0,0.00
2013-8-10,83.0,70.6,52.0,57.8,51.0,41.6,75,46,29,30.03,29.84,14,3,0,0.00
2013-8-11,84.3,77.0,54.5,57.0,54.0,48.1,84,36,24,30.01,29.79,10,4,0,0.00
2013-8-12,79.8,69.9,58.6,57.8,53.0,47.3,87,53,39,29.86,29.73,17,2,0,0.04
2013-8-13,86.0,69.4,53.5,59.3,53.0,45.7,91,55,23,29.91,29.76,18,2,0,0.11
2013-8-14,86.1,69.4,53.4,59.3,50.1,42.5,75,46,23,29.93,29.73,12,3,0,0.00
2013-8-15,91.2,72.6,51.7,61.0,49.7,38.2,65,36,15,29.90,29.70,15,2,0,0.00
2013-8-16,92.9,77.4,56.7,61.6,51.5,39.1,51,28,12,29.85,29.64,13,2,0,0.00
2013-8-17,93.1,75.1,54.3,62.5,50.2,36.4,54,31,15,29.85,29.60,11,2,0,0.00
2013-8-18,91.3,74.4,56.8,62.8,51.4,40.3,56,36,19,29.82,29.65,21,3,0,0.00
2013-8-19,90.1,74.5,57.1,63.1,54.2,45.8,73,44,25,29.81,29.64,14,2,0,0.00
2013-8-20,90.5,71.5,54.1,63.0,53.9,42.7,73,51,23,29.80,29.62,14,2,0,0.12
2013-8-21,91.1,71.2,54.8,63.7,55.0,48.3,83,55,24,29.84,29.69,12,2,0,0.01
2013-8-22,89.9,72.7,54.7,63.1,54.3,45.7,77,49,25,29.86,29.68,17,2,0,0.00
2013-8-23,88.3,69.8,49.0,59.5,49.9,38.3,71,45,20,29.88,29.66,21,4,0,0.00
2013-8-24,85.5,71.6,58.9,59.2,52.1,44.5,66,46,27,29.84,29.68,21,3,0,0.00
2013-8-25,85.2,72.0,62.3,60.7,54.5,49.4,69,51,31,29.90,29.78,16,2,0,0.00
2013-8-26,89.4,71.6,55.1,62.6,53.9,46.0,77,51,24,29.95,29.75,14,2,0,0.00
2013-8-27,88.3,74.4,54.1,62.4,53.6,42.8,71,42,27,29.88,29.65,15,3,0,0.00
2013-8-28,90.9,73.8,53.7,63.5,52.4,39.8,62,40,23,29.81,29.63,14,2,0,0.00
2013-8-29,90.9,73.2,57.4,64.2,54.8,44.5,80,49,25,29.86,29.67,19,2,0,0.06
2013-8-30,93.2,72.5,55.1,65.1,56.1,48.9,87,54,22,29.89,29.66,20,2,0,0.20
2013-8-31,93.5,74.4,54.9,65.2,55.3,45.9,79,47,19,29.81,29.57,23,3,0,0.03
2013-9-1,93.4,75.3,64.7,65.4,56.2,51.7,75,47,20,29.78,29.59,16,2,0,0.00
2013-9-2,89.2,73.2,62.5,62.9,54.8,49.2,65,49,26,29.83,29.64,13,2,0,0.00
2013-9-3,87.2,71.5,54.9,62.1,54.0,47.0,78,51,30,29.87,29.73,15,2,0,0.00
2013-9-4,92.1,72.8,53.6,64.3,52.7,44.1,78,44,22,29.93,29.74,16,3,0,0.00
2013-9-5,90.0,72.6,51.6,61.0,48.7,36.4,61,33,18,29.95,29.76,20,3,0,0.00
2013-9-6,90.5,72.1,51.7,60.9,47.4,34.6,54,32,17,29.94,29.68,14,2,0,0.00
2013-9-7,89.9,69.0,51.0,62.2,49.8,35.0,87,47,22,29.86,29.63,14,2,0,0.34
2013-9-8,87.2,70.0,50.6,59.8,52.9,46.0,90,52,23,29.84,29.60,18,2,0,0.00
2013-9-9,86.1,71.0,54.4,59.6,51.6,44.6,74,46,25,29.68,29.48,21,2,0,0.00
2013-9-10,72.2,61.6,54.8,60.0,51.9,42.1,94,73,47,29.85,29.63,11,1,0,0.72
2013-9-11,78.7,66.4,58.4,60.2,57.3,54.8,95,75,41,29.88,29.75,9,2,0,0.21
2013-9-12,70.1,63.4,59.5,60.1,56.5,52.7,94,81,61,29.87,29.77,10,1,0,0.38
2013-9-13,64.0,59.0,55.6,57.4,55.2,53.0,95,90,74,29.89,29.77,10,1,0,1.11
2013-9-14,71.7,60.0,54.8,56.7,53.4,49.9,95,82,54,29.84,29.69,19,3,0,0.48
2013-9-15,77.2,62.9,52.4,57.3,52.5,49.9,94,71,39,29.91,29.79,15,2,0,0.03
2013-9-16,74.2,63.7,54.2,55.5,52.5,49.0,92,69,44,29.96,29.81,16,2,0,0.00
2013-9-17,78.0,64.6,51.6,56.8,52.1,47.6,92,65,38,29.91,29.67,15,3,0,0.00
2013-9-18,74.9,63.5,57.0,58.5,54.9,50.5,92,76,51,29.71,29.60,20,2,0,0.12
2013-9-19,81.9,63.9,51.7,58.7,52.1,43.5,95,67,26,29.83,29.67,10,1,0,0.29
2013-9-20,79.0,62.7,45.5,54.2,48.9,42.4,93,62,27,29.90,29.74,21,3,0,0.00
2013-9-21,77.7,63.3,48.9,56.7,50.7,45.7,94,65,33,29.87,29.62,13,2,0,0.00
2013-9-22,77.3,61.6,48.5,53.4,49.1,43.4,92,65,29,29.67,29.32,22,4,0,1.09
2013-9-23,69.8,57.0,46.2,45.7,39.7,33.1,84,52,31,29.94,29.49,17,4,0,0.01
2013-9-24,76.9,55.9,38.3,48.5,41.3,35.1,93,59,21,30.07,29.82,9,2,0,0.00
2013-9-25,77.5,60.9,40.3,51.6,43.4,33.3,89,52,26,29.85,29.51,30,4,0,0.00
2013-9-26,76.9,64.2,44.5,48.6,43.8,38.0,85,43,20,29.61,29.45,23,5,0,0.00
2013-9-27,69.6,53.8,40.3,51.0,41.2,34.3,84,65,39,29.92,29.48,20,2,0,0.09
2013-9-28,68.3,48.1,31.2,39.9,32.4,27.6,93,56,18,30.18,29.92,9,2,0,0.00
2013-9-29,75.4,53.9,33.1,46.2,34.4,27.4,87,46,17,30.16,29.90,11,2,0,0.00
2013-9-30,81.8,57.4,36.6,51.9,36.7,27.3,80,43,16,29.96,29.71,18,2,0,0.00
2013-10-1,81.8,60.8,39.1,53.3,39.7,29.4,78,42,20,29.87,29.68,11,2,0,0.00
2013-10-2,76.9,58.0,37.3,47.4,36.1,26.4,78,39,16,29.86,29.68,13,2,0,0.00
2013-10-3,77.4,56.6,35.8,47.2,34.7,25.3,75,39,16,29.79,29.55,25,3,0,0.00
2013-10-4,60.9,53.4,45.1,33.8,27.1,20.3,57,27,11,29.96,29.61,25,4,0,0.00
2013-10-5,60.7,47.1,29.9,32.6,23.4,15.6,62,34,22,30.19,29.96,14,2,0,0.00
2013-10-6,73.1,49.4,31.3,41.8,26.2,16.8,62,36,11,30.30,30.08,10,2,0,0.00
2013-10-7,74.0,52.0,29.1,44.5,28.7,17.2,71,35,16,30.22,29.94,14,2,0,0.00
2013-10-8,74.9,54.8,34.0,46.5,32.5,21.2,70,38,19,29.98,29.68,17,3,0,0.00
2013-10-9,71.8,54.8,34.8,43.3,34.5,25.8,76,44,16,29.80,29.66,21,3,0,0.00
2013-10-10,66.6,49.4,40.9,42.9,36.6,27.1,89,64,31,29.84,29.45,28,4,0,0.27
2013-10-11,55.9,42.7,30.9,35.9,31.0,27.5,94,67,41,30.07,29.83,18,2,0,0.12
2013-10-12,65.5,45.5,29.2,39.2,32.6,25.7,93,64,26,30.17,29.99,19,2,0,0.01
2013-10-13,72.2,52.4,32.7,48.1,39.2,28.8,93,63,32,30.13,29.81,19,3,0,0.00
2013-10-14,63.5,54.4,38.3,47.7,35.2,22.8,81,47,19,29.92,29.74,21,3,0,0.01
2013-10-15,60.0,44.1,27.7,36.7,28.7,21.3,88,57,31,30.06,29.88,23,4,0,0.01
2013-10-16,55.7,43.1,34.2,35.5,31.6,24.2,92,68,30,30.09,29.95,13,3,0,0.06
2013-10-17,61.5,42.0,26.7,33.5,27.7,22.7,93,60,21,30.16,29.90,15,2,0,0.07
2013-10-18,57.4,41.0,26.5,32.2,26.2,21.6,88,59,26,30.17,29.95,13,2,0,0.03
2013-10-19,64.6,42.6,25.6,35.8,26.1,20.9,89,54,19,30.22,29.98,9,1,0,0.02
2013-10-20,67.3,47.8,29.0,38.5,27.9,20.8,79,45,16,30.04,29.78,14,2,0,0.01
2013-10-21,63.3,48.7,36.8,37.4,30.5,25.0,74,50,27,30.09,29.88,8,2,0,0.00
2013-10-22,68.3,44.7,26.7,38.8,27.6,21.7,88,53,17,30.25,30.07,9,1,0,0.01
2013-10-23,73.7,46.7,26.1,43.8,28.1,19.6,84,48,16,30.22,29.99,7,1,0,0.00
2013-10-24,71.9,50.1,29.3,43.6,30.8,21.5,83,46,19,30.18,29.97,13,2,0,0.00
2013-10-25,60.3,51.5,45.1,47.4,42.6,34.9,93,75,42,30.15,29.92,25,3,0,0.02
2013-10-26,67.9,49.9,38.3,43.2,38.4,34.7,93,68,29,30.21,30.06,9,2,0,0.01
2013-10-27,65.2,47.2,31.6,41.9,35.4,28.5,94,67,34,30.15,29.81,12,2,0,0.01
2013-10-28,64.2,46.5,33.6,39.9,33.0,27.7,92,63,23,29.89,29.76,17,3,0,0.00
2013-10-29,64.3,52.3,34.4,36.9,31.6,24.9,77,43,23,29.92,29.67,23,6,0,0.00
2013-10-30,53.3,43.5,36.3,38.6,33.7,28.1,92,73,39,29.85,29.65,20,2,0,0.29
2013-10-31,51.0,41.5,33.3,30.1,26.1,23.7,82,57,39,30.06,29.85,16,4,0,0.00
2013-11-1,59.8,40.3,26.0,33.6,26.5,21.7,91,62,26,30.29,30.01,9,1,0,0.00
2013-11-2,61.8,41.4,28.0,35.6,26.9,20.9,86,60,26,30.35,30.02,12,2,0,0.00
2013-11-3,59.6,46.3,36.4,37.5,30.4,25.1,72,56,35,30.02,29.66,11,2,0,0.00
2013-11-4,60.0,44.7,28.1,39.8,30.6,21.8,91,61,28,29.90,29.71,20,4,0,0.43
2013-11-5,48.2,40.2,28.3,39.0,29.5,17.1,92,70,41,30.21,29.71,15,3,0,0.56
2013-11-6,53.0,34.9,23.2,28.9,22.4,17.5,88,65,29,30.50,30.21,9,2,0,0.00
2013-11-7,59.4,38.5,23.8,35.0,25.9,19.7,91,65,28,30.56,30.29,9,2,0,0.00
2013-11-8,64.3,40.5,24.3,38.0,26.8,20.0,92,62,25,30.30,30.01,11,2,0,0.01
2013-11-9,67.7,42.2,24.4,39.6,27.7,20.2,92,60,21,30.25,30.09,5,1,0,0.00
2013-11-10,65.5,41.4,23.8,37.4,27.3,19.3,92,61,21,30.35,30.17,9,2,0,0.00
2013-11-11,64.9,41.5,25.0,36.5,25.7,18.9,90,56,17,30.41,30.20,9,2,0,0.00
2013-11-12,56.6,38.6,25.4,34.5,25.7,18.5,86,64,38,30.58,30.40,12,3,0,0.00
2013-11-13,56.0,38.5,23.6,34.8,27.9,19.6,92,71,40,30.56,30.14,12,2,0,0.00
2013-11-14,59.8,40.4,27.8,36.0,28.9,23.3,91,68,32,30.14,29.91,12,2,0,0.00
2013-11-15,55.0,40.2,25.2,38.5,29.7,20.2,89,71,35,29.93,29.66,15,4,0,0.09
2013-11-16,50.9,46.4,42.9,38.0,34.0,28.5,81,66,47,29.66,29.53,14,5,0,0.03
2013-11-17,57.4,44.6,31.8,35.1,29.2,24.4,80,57,35,30.11,29.64,15,3,0,0.00
2013-11-18,53.3,37.1,24.8,32.4,25.4,19.8,89,68,36,30.26,30.11,9,2,0,0.00
2013-11-19,59.0,39.9,21.8,36.7,27.1,17.5,92,64,36,30.20,29.87,10,2,0,0.01
2013-11-20,48.7,38.2,28.5,36.4,30.0,23.3,89,77,53,29.92,29.80,14,2,0,0.03
2013-11-21,50.9,43.8,38.2,39.8,36.9,34.4,92,81,60,30.07,29.92,14,2,0,0.25
2013-11-22,42.6,31.4,28.6,39.7,27.2,23.8,92,89,86,30.46,30.06,11,3,0,0.47
2013-11-23,33.2,30.1,26.2,28.0,24.7,20.2,89,85,80,30.53,30.40,14,4,0,0.03
2013-11-24,25.9,21.9,17.9,20.9,17.5,13.4,91,88,84,30.45,30.25,14,3,0,0.00
2013-11-25,44.1,27.7,13.4,31.8,20.7,8.7,91,80,60,30.48,30.24,9,2,0,0.23
2013-11-26,43.7,28.1,15.3,26.4,19.5,10.8,91,76,50,30.59,30.45,8,2,0,0.02
2013-11-27,38.5,25.6,18.3,23.9,15.9,10.0,81,73,56,30.56,30.33,16,6,0,0.00
2013-11-28,43.5,28.2,17.3,25.1,15.9,7.9,83,66,47,30.46,30.34,15,5,0,0.00
2013-11-29,56.1,31.2,17.8,33.2,18.1,8.9,80,64,35,30.54,30.33,10,3,0,0.00
2013-11-30,46.0,30.8,21.3,27.0,17.4,10.9,74,63,46,30.50,30.28,15,6,0,0.00
2013-12-1,49.2,31.9,23.2,29.6,19.2,12.7,82,64,40,30.45,30.26,13,4,0,0.00
2013-12-2,54.8,36.6,23.3,31.5,23.3,18.4,89,63,34,30.30,29.87,12,2,0,0.00
2013-12-3,56.6,41.6,23.9,30.7,24.4,18.1,87,52,27,29.88,29.56,20,4,0,0.00
2013-12-4,53.7,43.2,31.9,29.3,23.6,18.2,65,45,27,29.76,29.37,19,7,0,0.00
2013-12-5,31.9,25.1,17.3,21.1,14.2,9.2,82,70,58,30.07,29.74,19,3,0,0.00
2013-12-6,32.6,23.0,15.5,14.1,10.6,7.5,84,66,42,30.31,30.06,16,4,0,0.00
2013-12-7,30.6,21.4,10.5,22.1,14.0,4.7,87,79,69,30.29,29.96,16,4,0,0.00
2013-12-8,31.2,26.4,22.8,21.1,9.4,0.7,81,53,26,30.10,29.78,17,4,0,0.00
2013-12-9,29.0,19.7,8.4,12.9,4.1,-7.0,86,57,28,30.66,30.11,14,3,0,0.00
2013-12-10,39.2,16.8,1.9,12.6,-1.3,-12.0,72,50,26,30.75,30.50,14,4,0,0.00
2013-12-11,42.8,22.4,7.8,16.9,3.2,-5.3,68,47,27,30.78,30.60,21,4,0,0.00
2013-12-12,37.7,24.3,14.2,15.1,5.9,-1.2,61,49,35,30.78,30.32,18,6,0,0.00
2013-12-13,47.1,28.7,19.7,25.7,13.8,5.1,76,59,40,30.32,30.02,10,3,0,0.00
2013-12-14,47.4,27.9,16.0,21.5,12.1,7.1,82,56,28,30.55,30.22,10,2,0,0.00
2013-12-15,49.0,28.7,11.5,24.5,13.0,4.4,83,56,32,30.58,30.41,12,3,0,0.00
2013-12-16,50.9,31.7,14.9,26.4,15.8,8.0,83,56,31,30.53,30.35,12,3,0,0.00
2013-12-17,49.9,31.7,17.0,25.1,15.7,8.9,81,56,30,30.58,30.38,16,3,0,0.00
2013-12-18,52.9,29.4,13.3,27.3,15.7,7.7,87,62,28,30.43,30.05,5,1,0,0.00
2013-12-19,54.2,34.1,19.3,29.6,19.4,12.1,82,59,31,30.05,29.72,13,2,0,0.00
2013-12-20,50.8,30.9,19.9,26.3,18.8,14.1,88,66,31,29.86,29.67,7,1,0,0.00
2013-12-21,39.1,29.2,18.5,25.6,19.1,13.3,90,72,46,29.91,29.58,14,2,0,0.00
2013-12-22,41.3,28.8,19.7,25.7,18.7,10.3,91,72,40,30.36,29.91,8,1,0,0.07
2013-12-23,45.1,24.7,10.9,20.1,11.4,3.7,85,63,29,30.63,30.37,5,1,0,0.00
2013-12-24,49.5,27.9,11.8,26.5,14.2,5.2,92,62,35,30.59,30.28,11,2,0,0.00
2013-12-25,43.1,26.1,11.6,16.0,9.4,2.5,84,54,22,30.59,30.43,10,3,0,0.00
2013-12-26,44.8,27.4,10.2,18.2,8.1,-0.2,72,46,25,30.62,30.39,14,4,0,0.00
2013-12-27,48.6,28.9,10.4,22.9,11.6,2.4,81,52,28,30.59,30.36,10,3,0,0.00
2013-12-28,53.5,29.3,11.6,26.5,13.4,4.8,84,56,25,30.37,29.99,9,2,0,0.00
2013-12-29,41.2,30.1,19.7,24.0,18.0,13.0,84,67,49,30.28,30.07,10,3,0,0.00
2013-12-30,41.7,26.7,15.6,21.0,14.0,8.2,89,65,40,30.53,30.28,14,4,0,0.00
2013-12-31,51.3,27.6,9.2,25.9,12.5,2.8,85,58,29,30.53,30.27,10,2,0,0.00
2014-1-1,52.9,31.9,16.2,27.0,15.7,8.1,83,55,27,30.40,30.14,11,2,0,0.00
2014-1-2,52.6,27.3,11.0,24.8,11.9,4.2,85,57,23,30.53,30.33,5,1,0,0.00